FW4770 Weather Reports


time (UTC)temp
C
wind
direction
speed
KPH
gust
KPH
rain 1hr
cm
rain 24hr
cm
rain mn
cm
humidity
%
barometer
mb
20260504060218 14 240 8.0 16.1 0.00 0.00 0.00 47 1000.6
20260504060121 14 255 8.0 16.1 0.00 0.00 0.00 48 1000.6
20260504050705 13 228 6.4 12.9 0.00 0.00 0.00 49 1001.6
20260504050608 13 248 4.8 12.9 0.00 0.00 0.00 50 1001.6
20260504050512 13 254 6.4 12.9 0.00 0.00 0.00 49 1001.7
20260504050420 13 209 6.4 12.9 0.00 0.00 0.00 49 1001.7
20260504050303 13 228 4.8 12.9 0.00 0.00 0.00 49 1001.8
20260504050227 13 231 4.8 12.9 0.00 0.00 0.00 49 1001.8
20260504050104 13 228 4.8 12.9 0.00 0.00 0.00 49 1001.8
20260504050009 13 227 6.4 12.9 0.00 0.00 0.00 49 1001.8
20260504045933 13 235 8.0 12.9 0.00 0.00 0.00 50 1001.8
20260504045817 13 248 6.4 11.3 0.00 0.00 0.00 50 1001.8
20260504045705 13 257 6.4 11.3 0.00 0.00 0.00 50 1001.8
20260504045629 13 239 6.4 11.3 0.00 0.00 0.00 50 1001.8
20260504045554 13 217 6.4 9.7 0.00 0.00 0.00 50 1001.8
20260504045407 13 200 4.8 9.7 0.00 0.00 0.00 51 1001.9
20260504045310 13 236 6.4 9.7 0.00 0.00 0.00 50 1001.9
20260504045234 13 246 6.4 9.7 0.00 0.00 0.00 50 1001.9
20260504045118 13 221 6.4 11.3 0.00 0.00 0.00 51 1002.0
20260504045004 13 199 6.4 11.3 0.00 0.00 0.00 51 1001.9
20260504044927 13 240 6.4 11.3 0.00 0.00 0.00 51 1002.0
20260504044804 12 228 6.4 9.7 0.00 0.00 0.00 53 1001.9
20260504044708 12 230 4.8 9.7 0.00 0.00 0.00 53 1002.0
20260504044610 12 219 4.8 9.7 0.00 0.00 0.00 53 1001.9
20260504044515 12 221 6.4 9.7 0.00 0.00 0.00 53 1002.0
20260504044421 12 220 6.4 9.7 0.00 0.00 0.00 54 1002.1
20260504044305 12 220 4.8 9.7 0.00 0.00 0.00 54 1002.0
20260504044210 12 228 4.8 9.7 0.00 0.00 0.00 55 1002.1
20260504044114 12 232 4.8 9.7 0.00 0.00 0.00 55 1002.2
20260504044017 12 225 4.8 9.7 0.00 0.00 0.00 56 1002.2
20260504043941 12 229 4.8 9.7 0.00 0.00 0.00 56 1002.2
20260504043806 11 238 4.8 11.3 0.00 0.00 0.00 57 1002.1
20260504043709 11 214 4.8 11.3 0.00 0.00 0.00 58 1002.1
20260504043611 11 214 6.4 11.3 0.00 0.00 0.00 58 1002.2
20260504043516 11 237 6.4 11.3 0.00 0.00 0.00 59 1002.2
20260504043419 11 241 4.8 11.3 0.00 0.00 0.00 62 1002.2
20260504043322 11 232 4.8 6.4 0.00 0.00 0.00 61 1002.3
20260504043229 11 235 4.8 6.4 0.00 0.00 0.00 61 1002.3
20260504043105 11 236 4.8 6.4 0.00 0.00 0.00 62 1002.3
20260504043009 11 236 4.8 6.4 0.00 0.00 0.00 64 1002.3
20260504042912 11 234 4.8 6.4 0.00 0.00 0.00 64 1002.4
20260504042816 11 237 4.8 6.4 0.00 0.00 0.00 63 1002.4
20260504042718 11 238 4.8 6.4 0.00 0.00 0.00 64 1002.4
20260504042606 11 243 3.2 9.7 0.00 0.00 0.00 63 1002.5
20260504042530 11 243 4.8 9.7 0.00 0.00 0.00 64 1002.4
20260504042412 11 243 4.8 9.7 0.00 0.00 0.00 65 1002.4
20260504042317 11 243 4.8 9.7 0.00 0.00 0.00 65 1002.5
20260504042220 11 244 4.8 9.7 0.00 0.00 0.00 65 1002.5
20260504042122 11 248 3.2 9.7 0.00 0.00 0.00 63 1002.5
20260504042010 11 259 3.2 9.7 0.00 0.00 0.00 65 1002.4
20260504041916 10 238 4.8 9.7 0.00 0.00 0.00 64 1002.5
20260504041819 10 238 4.8 9.7 0.00 0.00 0.00 64 1002.6
20260504041722 10 234 4.8 8.0 0.00 0.00 0.00 65 1002.5
20260504041645 10 253 4.8 6.4 0.00 0.00 0.00 65 1002.6
20260504041507 10 239 4.8 6.4 0.00 0.00 0.00 66 1002.6
20260504041409 10 240 4.8 6.4 0.00 0.00 0.00 68 1002.7
20260504041336 10 240 4.8 6.4 0.00 0.00 0.00 67 1002.7
20260504041240 10 236 4.8 6.4 0.00 0.00 0.00 67 1002.7
20260504041121 10 236 3.2 6.4 0.00 0.00 0.00 68 1002.8
20260504041024 10 241 3.2 6.4 0.00 0.00 0.00 68 1002.7
20260504040906 10 242 3.2 6.4 0.00 0.00 0.00 68 1002.8
20260504040831 10 242 3.2 6.4 0.00 0.00 0.00 68 1002.8
20260504040713 10 242 3.2 6.4 0.00 0.00 0.00 68 1002.9
20260504040617 10 246 3.2 6.4 0.00 0.00 0.00 67 1002.9
20260504040525 10 246 3.2 6.4 0.00 0.00 0.00 67 1002.9
20260504040448 10 246 3.2 6.4 0.00 0.00 0.00 67 1003.0
20260504040304 10 250 3.2 6.4 0.00 0.00 0.00 67 1003.0
20260504040209 10 250 3.2 6.4 0.00 0.00 0.00 66 1003.0
20260504040111 10 240 3.2 6.4 0.00 0.00 0.00 66 1003.0
20260504040015 10 240 3.2 6.4 0.00 0.00 0.00 65 1003.0
20260504035903 10 240 3.2 6.4 0.00 0.00 0.00 65 1003.0
20260504035827 10 240 3.2 6.4 0.00 0.00 0.00 65 1003.1
20260504035704 10 244 3.2 6.4 0.00 0.00 0.00 67 1003.0
20260504035608 10 244 3.2 6.4 0.00 0.00 0.00 67 1003.0
20260504035513 10 244 3.2 6.4 0.00 0.00 0.00 67 1003.1
20260504035417 10 246 3.2 6.4 0.00 0.00 0.00 68 1003.1
20260504035306 10 246 3.2 6.4 0.00 0.00 0.00 67 1003.1
20260504035209 10 246 3.2 6.4 0.00 0.00 0.00 67 1003.1
20260504035112 10 248 3.2 4.8 0.00 0.00 0.00 69 1003.2
20260504035016 10 248 3.2 4.8 0.00 0.00 0.00 68 1003.2
20260504034920 10 248 3.2 4.8 0.00 0.00 0.00 68 1003.3
20260504034806 10 248 3.2 4.8 0.00 0.00 0.00 69 1003.3
20260504034714 10 248 3.2 4.8 0.00 0.00 0.00 69 1003.2
20260504034618 10 248 3.2 4.8 0.00 0.00 0.00 69 1003.2
20260504034523 10 248 3.2 4.8 0.00 0.00 0.00 69 1003.3
20260504034407 10 248 3.2 4.8 0.00 0.00 0.00 69 1003.3
20260504034310 10 248 3.2 4.8 0.00 0.00 0.00 69 1003.3
20260504034215 10 248 3.2 4.8 0.00 0.00 0.00 70 1003.4
20260504034103 10 248 1.6 4.8 0.00 0.00 0.00 70 1003.3
20260504034028 10 248 3.2 4.8 0.00 0.00 0.00 71 1003.3
20260504033904 10 248 3.2 4.8 0.00 0.00 0.00 71 1003.4
20260504033808 10 249 3.2 4.8 0.00 0.00 0.00 71 1003.3
20260504033714 10 250 3.2 4.8 0.00 0.00 0.00 70 1003.4
20260504033616 10 250 3.2 4.8 0.00 0.00 0.00 70 1003.5
20260504033504 10 251 3.2 4.8 0.00 0.00 0.00 70 1003.5
20260504033408 10 251 3.2 4.8 0.00 0.00 0.00 70 1003.5
20260504033310 10 252 3.2 4.8 0.00 0.00 0.00 70 1003.5
20260504033216 10 254 3.2 4.8 0.00 0.00 0.00 69 1003.5
20260504033119 10 254 3.2 4.8 0.00 0.00 0.00 70 1003.5
20260504033021 10 256 3.2 4.8 0.00 0.00 0.00 70 1003.6
20260504032948 10 257 3.2 4.8 0.00 0.00 0.00 69 1003.7
20260504032803 10 257 3.2 4.8 0.00 0.00 0.00 68 1003.7
20260504032707 10 257 3.2 4.8 0.00 0.00 0.00 67 1003.7
20260504032611 10 257 3.2 4.8 0.00 0.00 0.00 67 1003.7
20260504032537 10 257 3.2 4.8 0.00 0.00 0.00 66 1003.7
20260504032420 10 257 3.2 4.8 0.00 0.00 0.00 66 1003.8
20260504032307 10 257 3.2 4.8 0.00 0.00 0.00 66 1003.8
20260504032230 10 257 3.2 4.8 0.00 0.00 0.00 65 1003.9
20260504032106 10 259 3.2 4.8 0.00 0.00 0.00 66 1003.8
20260504032030 10 259 3.2 4.8 0.00 0.00 0.00 66 1003.9
20260504031905 10 259 1.6 4.8 0.00 0.00 0.00 66 1003.8
20260504031809 10 259 3.2 4.8 0.00 0.00 0.00 66 1003.9
20260504031734 10 259 3.2 4.8 0.00 0.00 0.00 66 1004.0
20260504031622 10 259 3.2 4.8 0.00 0.00 0.00 65 1004.0
20260504031527 10 259 3.2 4.8 0.00 0.00 0.00 65 1004.0
20260504031403 10 259 1.6 3.2 0.00 0.00 0.00 66 1004.0
20260504031308 10 259 3.2 3.2 0.00 0.00 0.00 66 1004.0
20260504031210 10 259 1.6 3.2 0.00 0.00 0.00 66 1004.0
20260504031114 10 259 1.6 3.2 0.00 0.00 0.00 66 1004.1
20260504031023 11 259 1.6 4.8 0.00 0.00 0.00 66 1004.1
20260504030927 11 259 3.2 4.8 0.00 0.00 0.00 66 1004.1
20260504030810 11 259 1.6 4.8 0.00 0.00 0.00 66 1004.1
20260504030735 11 259 1.6 4.8 0.00 0.00 0.00 66 1004.1
20260504030618 11 259 1.6 4.8 0.00 0.00 0.00 66 1004.0
20260504030522 11 259 1.6 4.8 0.00 0.00 0.00 65 1004.1
20260504030407 11 259 3.2 4.8 0.00 0.00 0.00 65 1004.1
20260504030334 11 259 3.2 4.8 0.00 0.00 0.00 65 1004.1
20260504030218 11 259 3.2 4.8 0.00 0.00 0.00 64 1004.1
20260504030121 11 259 3.2 4.8 0.00 0.00 0.00 64 1004.2
20260504030005 11 259 3.2 4.8 0.00 0.00 0.00 64 1004.1
20260504025927 11 259 3.2 4.8 0.00 0.00 0.00 62 1004.2
20260504025808 11 259 3.2 4.8 0.00 0.00 0.00 61 1004.1
20260504025711 11 259 3.2 4.8 0.00 0.00 0.00 61 1004.2
20260504025639 11 259 3.2 4.8 0.00 0.00 0.00 61 1004.2
20260504025541 11 259 3.2 4.8 0.00 0.00 0.00 61 1004.2
20260504025424 11 259 3.2 4.8 0.00 0.00 0.00 60 1004.2
20260504025328 11 259 3.2 4.8 0.00 0.00 0.00 61 1004.2
20260504025204 11 260 3.2 4.8 0.00 0.00 0.00 60 1004.2
20260504025128 11 259 3.2 4.8 0.00 0.00 0.00 59 1004.2
20260504025030 11 260 3.2 4.8 0.00 0.00 0.00 59 1004.2
20260504024931 11 259 3.2 4.8 0.00 0.00 0.00 59 1004.3
20260504024813 11 260 3.2 4.8 0.00 0.00 0.00 59 1004.3
20260504024720 11 259 3.2 4.8 0.00 0.00 0.00 57 1004.3
20260504024605 11 260 3.2 4.8 0.00 0.00 0.00 57 1004.3
20260504024529 11 260 3.2 4.8 0.00 0.00 0.00 57 1004.3
20260504024409 11 259 3.2 4.8 0.00 0.00 0.00 57 1004.3
20260504024333 12 260 3.2 4.8 0.00 0.00 0.00 57 1004.3
20260504024218 12 260 3.2 4.8 0.00 0.00 0.00 59 1004.3
20260504024142 12 260 3.2 4.8 0.00 0.00 0.00 56 1004.4
20260504024028 12 260 3.2 4.8 0.00 0.00 0.00 55 1004.3
20260504023905 12 264 1.6 4.8 0.00 0.00 0.00 54 1004.3
20260504023828 12 264 1.6 3.2 0.00 0.00 0.00 56 1004.3
20260504023705 12 270 1.6 3.2 0.00 0.00 0.00 55 1004.4
20260504023611 12 270 1.6 3.2 0.00 0.00 0.00 56 1004.4
20260504023535 12 270 0.0 3.2 0.00 0.00 0.00 56 1004.4
20260504023417 12 270 0.0 3.2 0.00 0.00 0.00 58 1004.3
20260504023307 12 270 1.6 3.2 0.00 0.00 0.00 57 1004.4
20260504023211 12 270 1.6 3.2 0.00 0.00 0.00 56 1004.4
20260504023114 12 270 1.6 3.2 0.00 0.00 0.00 55 1004.4
20260504023019 12 270 1.6 3.2 0.00 0.00 0.00 54 1004.4
20260504022923 12 270 1.6 3.2 0.00 0.00 0.00 52 1004.4
20260504022812 12 270 1.6 3.2 0.00 0.00 0.00 52 1004.4
20260504022717 12 270 1.6 3.2 0.00 0.00 0.00 51 1004.4
20260504022620 12 270 1.6 3.2 0.00 0.00 0.00 51 1004.4
20260504022543 12 270 1.6 3.2 0.00 0.00 0.00 51 1004.4
20260504022427 12 270 1.6 3.2 0.00 0.00 0.00 52 1004.4
20260504022351 12 270 1.6 3.2 0.00 0.00 0.00 53 1004.4
20260504022208 12 270 1.6 3.2 0.00 0.00 0.00 50 1004.3
20260504022132 12 270 1.6 3.2 0.00 0.00 0.00 50 1004.3
20260504022039 12 270 1.6 3.2 0.00 0.00 0.00 51 1004.3
20260504021943 12 270 1.6 3.2 0.00 0.00 0.00 51 1004.4
20260504021807 12 270 1.6 3.2 0.00 0.00 0.00 52 1004.3
20260504021731 12 270 1.6 3.2 0.00 0.00 0.00 52 1004.3
20260504021607 12 270 1.6 3.2 0.00 0.00 0.00 50 1004.3
20260504021512 12 270 1.6 4.8 0.00 0.00 0.00 50 1004.4
20260504021416 12 270 1.6 4.8 0.00 0.00 0.00 50 1004.3
20260504021305 13 270 1.6 4.8 0.00 0.00 0.00 50 1004.3
20260504021229 13 270 1.6 4.8 0.00 0.00 0.00 50 1004.3
20260504021134 13 270 1.6 4.8 0.00 0.00 0.00 51 1004.3
20260504021035 13 270 1.6 4.8 0.00 0.00 0.00 50 1004.3
20260504020939 13 270 1.6 4.8 0.00 0.00 0.00 50 1004.3
20260504020841 13 270 1.6 4.8 0.00 0.00 0.00 51 1004.3
20260504020704 13 270 1.6 4.8 0.00 0.00 0.00 50 1004.4
20260504020608 13 270 1.6 4.8 0.00 0.00 0.00 49 1004.3
20260504020517 13 270 1.6 4.8 0.00 0.00 0.00 48 1004.3
20260504020421 13 270 1.6 4.8 0.00 0.00 0.00 49 1004.4
20260504020326 13 270 1.6 4.8 0.00 0.00 0.00 48 1004.3
20260504020228 13 270 1.6 4.8 0.00 0.00 0.00 48 1004.3
20260504020111 13 270 3.2 6.4 0.00 0.00 0.00 49 1004.3
20260504020036 13 270 3.2 6.4 0.00 0.00 0.00 48 1004.3
20260504015939 13 270 3.2 6.4 0.00 0.00 0.00 48 1004.3
20260504015807 13 270 3.2 6.4 0.00 0.00 0.00 48 1004.3
20260504015732 13 270 3.2 6.4 0.00 0.00 0.00 48 1004.3
20260504015615 13 270 3.2 6.4 0.00 0.00 0.00 47 1004.4
20260504015519 13 270 3.2 6.4 0.00 0.00 0.00 48 1004.3
20260504015424 14 270 3.2 6.4 0.00 0.00 0.00 48 1004.3
20260504015308 14 270 3.2 6.4 0.00 0.00 0.00 46 1004.3
20260504015212 14 274 3.2 4.8 0.00 0.00 0.00 46 1004.3
20260504015141 14 274 3.2 4.8 0.00 0.00 0.00 46 1004.3
20260504015023 14 274 3.2 4.8 0.00 0.00 0.00 45 1004.2
20260504014927 14 275 3.2 4.8 0.00 0.00 0.00 45 1004.3
20260504014829 14 275 3.2 4.8 0.00 0.00 0.00 44 1004.3
20260504014712 15 275 3.2 4.8 0.00 0.00 0.00 44 1004.3
20260504014617 15 276 3.2 4.8 0.00 0.00 0.00 45 1004.3
20260504014542 15 276 3.2 4.8 0.00 0.00 0.00 44 1004.3
20260504014409 15 276 3.2 4.8 0.00 0.00 0.00 44 1004.3
20260504014313 15 276 3.2 4.8 0.00 0.00 0.00 44 1004.3
20260504014216 15 276 3.2 4.8 0.00 0.00 0.00 43 1004.3
20260504014121 15 276 3.2 4.8 0.00 0.00 0.00 43 1004.3
20260504014005 15 276 3.2 4.8 0.00 0.00 0.00 43 1004.3
20260504013929 15 277 3.2 4.8 0.00 0.00 0.00 43 1004.3
20260504013832 15 277 3.2 4.8 0.00 0.00 0.00 43 1004.3
20260504013718 15 277 1.6 4.8 0.00 0.00 0.00 41 1004.2
20260504013623 15 277 3.2 4.8 0.00 0.00 0.00 42 1004.3
20260504013527 15 277 3.2 4.8 0.00 0.00 0.00 42 1004.3
20260504013410 15 277 3.2 4.8 0.00 0.00 0.00 41 1004.3
20260504013314 15 277 3.2 4.8 0.00 0.00 0.00 41 1004.3
20260504013239 15 277 3.2 4.8 0.00 0.00 0.00 41 1004.3
20260504013120 15 277 3.2 6.4 0.00 0.00 0.00 42 1004.4
20260504013009 15 277 3.2 6.4 0.00 0.00 0.00 42 1004.3
20260504012934 16 277 3.2 6.4 0.00 0.00 0.00 41 1004.3
20260504012816 16 277 3.2 6.4 0.00 0.00 0.00 43 1004.4
20260504012740 16 277 3.2 8.0 0.00 0.00 0.00 42 1004.4
20260504012624 16 277 3.2 8.0 0.00 0.00 0.00 41 1004.3
20260504012528 16 279 3.2 8.0 0.00 0.00 0.00 43 1004.3
20260504012411 16 279 4.8 8.0 0.00 0.00 0.00 42 1004.3
20260504012320 16 279 4.8 8.0 0.00 0.00 0.00 42 1004.3
20260504012244 16 281 4.8 8.0 0.00 0.00 0.00 41 1004.3
20260504012108 16 283 4.8 8.0 0.00 0.00 0.00 42 1004.4
20260504012011 16 283 4.8 8.0 0.00 0.00 0.00 42 1004.4
20260504011936 16 283 6.4 8.0 0.00 0.00 0.00 44 1004.4
20260504011819 16 271 4.8 8.0 0.00 0.00 0.00 41 1004.4
20260504011723 16 271 4.8 8.0 0.00 0.00 0.00 41 1004.4
20260504011612 16 271 4.8 11.3 0.00 0.00 0.00 42 1004.4
20260504011517 16 271 4.8 11.3 0.00 0.00 0.00 41 1004.4
20260504011440 16 270 4.8 11.3 0.00 0.00 0.00 41 1004.4
20260504011323 17 284 4.8 11.3 0.00 0.00 0.00 41 1004.4
20260504011228 17 284 4.8 11.3 0.00 0.00 0.00 41 1004.5
20260504011106 17 282 4.8 16.1 0.00 0.00 0.00 40 1004.4
20260504011015 17 282 4.8 16.1 0.00 0.00 0.00 41 1004.4
20260504010940 17 281 6.4 16.1 0.00 0.00 0.00 41 1004.5
20260504010822 17 284 6.4 16.1 0.00 0.00 0.00 39 1004.4
20260504010707 17 282 8.0 16.1 0.00 0.00 0.00 39 1004.4
20260504010630 17 283 8.0 16.1 0.00 0.00 0.00 39 1004.4
20260504010508 17 292 8.0 16.1 0.00 0.00 0.00 38 1004.4
20260504010433 17 291 9.7 16.1 0.00 0.00 0.00 37 1004.4
20260504010320 17 325 8.0 16.1 0.00 0.00 0.00 37 1004.4
20260504010243 17 270 4.8 11.3 0.00 0.00 0.00 38 1004.4
20260504010107 17 296 6.4 11.3 0.00 0.00 0.00 39 1004.4
20260504010012 17 296 6.4 11.3 0.00 0.00 0.00 36 1004.4
20260504005916 18 302 6.4 14.5 0.00 0.00 0.00 39 1004.5
20260504005820 18 282 6.4 17.7 0.00 0.00 0.00 39 1004.5
20260504005708 18 284 6.4 19.3 0.00 0.00 0.00 39 1004.4
20260504005611 18 281 6.4 19.3 0.00 0.00 0.00 36 1004.4
20260504005515 18 295 6.4 19.3 0.00 0.00 0.00 35 1004.5
20260504005419 18 306 6.4 19.3 0.00 0.00 0.00 35 1004.4
20260504005323 18 306 8.0 19.3 0.00 0.00 0.00 35 1004.5
20260504005227 18 300 9.7 19.3 0.00 0.00 0.00 34 1004.5
20260504005130 18 308 12.9 19.3 0.00 0.00 0.00 35 1004.5
20260504005016 18 295 12.9 19.3 0.00 0.00 0.00 35 1004.5
20260504004941 18 301 11.3 19.3 0.00 0.00 0.00 35 1004.5
20260504004823 18 299 9.7 19.3 0.00 0.00 0.00 35 1004.5
20260504004707 18 281 12.9 19.3 0.00 0.00 0.00 35 1004.5
20260504004611 18 284 12.9 19.3 0.00 0.00 0.00 35 1004.5
20260504004517 18 302 11.3 19.3 0.00 0.00 0.00 35 1004.5
20260504004405 18 297 11.3 19.3 0.00 0.00 0.00 36 1004.5
20260504004330 18 302 12.9 17.7 0.00 0.00 0.00 35 1004.5
20260504004213 18 302 14.5 17.7 0.00 0.00 0.00 34 1004.5
20260504004118 18 294 14.5 17.7 0.00 0.00 0.00 34 1004.5
20260504004023 18 290 11.3 17.7 0.00 0.00 0.00 35 1004.5
20260504003909 18 286 9.7 16.1 0.00 0.00 0.00 35 1004.5
20260504003834 18 302 9.7 17.7 0.00 0.00 0.00 35 1004.5
20260504003718 18 300 8.0 22.5 0.00 0.00 0.00 35 1004.5
20260504003607 18 284 9.7 22.5 0.00 0.00 0.00 35 1004.5
20260504003512 18 288 9.7 22.5 0.00 0.00 0.00 36 1004.6
20260504003418 18 300 9.7 22.5 0.00 0.00 0.00 36 1004.6
20260504003323 18 307 11.3 22.5 0.00 0.00 0.00 35 1004.6
20260504003206 19 304 11.3 22.5 0.00 0.00 0.00 33 1004.6
20260504003116 18 301 11.3 22.5 0.00 0.00 0.00 33 1004.6
20260504003021 18 324 12.9 22.5 0.00 0.00 0.00 34 1004.6
20260504002907 18 351 14.5 19.3 0.00 0.00 0.00 33 1004.6
20260504002813 18 315 12.9 17.7 0.00 0.00 0.00 34 1004.6
20260504002718 18 293 11.3 17.7 0.00 0.00 0.00 34 1004.7
20260504002622 18 286 9.7 17.7 0.00 0.00 0.00 33 1004.6
20260504002511 19 308 8.0 17.7 0.00 0.00 0.00 35 1004.6
20260504002417 19 273 6.4 17.7 0.00 0.00 0.00 36 1004.7
20260504002323 19 280 9.7 17.7 0.00 0.00 0.00 34 1004.7
20260504002207 19 291 9.7 17.7 0.00 0.00 0.00 35 1004.7
20260504002110 19 290 8.0 17.7 0.00 0.00 0.00 34 1004.6
20260504002016 19 309 9.7 17.7 0.00 0.00 0.00 36 1004.7
20260504001905 19 310 12.9 17.7 0.00 0.00 0.00 35 1004.7
20260504001811 19 279 12.9 17.7 0.00 0.00 0.00 34 1004.7
20260504001717 19 288 12.9 17.7 0.00 0.00 0.00 34 1004.7
20260504001622 19 295 12.9 17.7 0.00 0.00 0.00 33 1004.8
20260504001507 19 360 11.3 17.7 0.00 0.00 0.00 32 1004.7
20260504001433 19 314 9.7 16.1 0.00 0.00 0.00 33 1004.7
20260504001322 19 296 8.0 19.3 0.00 0.00 0.00 33 1004.7
20260504001227 19 309 9.7 19.3 0.00 0.00 0.00 36 1004.7
20260504001112 19 298 9.7 20.9 0.00 0.00 0.00 32 1004.8
20260504001038 19 309 9.7 20.9 0.00 0.00 0.00 35 1004.8
20260504000923 19 302 11.3 20.9 0.00 0.00 0.00 34 1004.8
20260504000809 19 309 14.5 20.9 0.00 0.00 0.00 33 1004.8
20260504000718 19 286 14.5 20.9 0.00 0.00 0.00 33 1004.8
20260504000604 19 316 14.5 20.9 0.00 0.00 0.00 32 1004.8
20260504000510 19 298 14.5 20.9 0.00 0.00 0.00 34 1004.8
20260504000416 19 278 14.5 20.9 0.00 0.00 0.00 35 1004.8
20260504000321 19 286 16.1 20.9 0.00 0.00 0.00 33 1004.8
20260504000207 19 290 14.5 20.9 0.00 0.00 0.00 34 1004.8
20260504000116 19 300 16.1 20.9 0.00 0.00 0.00 32 1004.7
20260504000021 19 299 16.1 20.9 0.00 0.00 0.00 33 1004.8
20260503235906 19 298 12.9 19.3 0.00 0.00 0.00 32 1004.7
20260503235831 19 294 9.7 17.7 0.00 0.00 0.00 33 1004.7
20260503235714 19 307 8.0 17.7 0.00 0.00 0.00 33 1004.8
20260503235619 19 294 6.4 17.7 0.00 0.00 0.00 35 1004.7
20260503235526 20 13 6.4 17.7 0.00 0.00 0.00 34 1004.7
20260503235410 20 300 9.7 17.7 0.00 0.00 0.00 32 1004.7
20260503235315 20 290 12.9 17.7 0.00 0.00 0.00 31 1004.7
20260503235240 20 318 12.9 19.3 0.00 0.00 0.00 31 1004.7
20260503235141 20 300 8.0 19.3 0.00 0.00 0.00 31 1004.7
20260503235005 20 304 4.8 19.3 0.00 0.00 0.00 32 1004.7
20260503234909 20 316 8.0 19.3 0.00 0.00 0.00 32 1004.7
20260503234818 20 344 9.7 19.3 0.00 0.00 0.00 32 1004.8
20260503234720 20 323 9.7 22.5 0.00 0.00 0.00 33 1004.7
20260503234604 20 279 9.7 22.5 0.00 0.00 0.00 30 1004.7
20260503234508 20 338 11.3 22.5 0.00 0.00 0.00 30 1004.7
20260503234412 20 315 11.3 22.5 0.00 0.00 0.00 30 1004.7
20260503234316 20 11 8.0 22.5 0.00 0.00 0.00 33 1004.8
20260503234204 20 355 9.7 22.5 0.00 0.00 0.00 32 1004.8
20260503234129 20 329 12.9 22.5 0.00 0.00 0.00 30 1004.8
20260503234031 20 355 14.5 22.5 0.00 0.00 0.00 30 1004.8
20260503233935 20 331 12.9 22.5 0.00 0.00 0.00 31 1004.8
20260503233818 20 314 11.3 20.9 0.00 0.00 0.00 31 1004.8
20260503233741 20 301 11.3 20.9 0.00 0.00 0.00 32 1004.7
20260503233625 20 315 14.5 20.9 0.00 0.00 0.00 32 1004.8
20260503233529 20 298 16.1 20.9 0.00 0.00 0.00 30 1004.8
20260503233412 20 311 16.1 20.9 0.00 0.00 0.00 30 1004.8
20260503233320 20 295 12.9 20.9 0.00 0.00 0.00 31 1004.8
20260503233204 20 314 9.7 19.3 0.00 0.00 0.00 31 1004.8
20260503233128 20 331 11.3 19.3 0.00 0.00 0.00 30 1004.8
20260503233031 20 351 12.9 22.5 0.00 0.00 0.00 30 1004.8
20260503232907 20 325 12.9 24.1 0.00 0.00 0.00 32 1004.8
20260503232809 20 294 11.3 24.1 0.00 0.00 0.00 30 1004.8
20260503232717 20 299 11.3 24.1 0.00 0.00 0.00 30 1004.8
20260503232622 20 334 12.9 24.1 0.00 0.00 0.00 30 1004.9
20260503232506 20 342 11.3 24.1 0.00 0.00 0.00 31 1004.8
20260503232410 21 288 9.7 24.1 0.00 0.00 0.00 30 1004.8
20260503232315 21 337 12.9 24.1 0.00 0.00 0.00 32 1004.9
20260503232218 21 306 16.1 24.1 0.00 0.00 0.00 30 1004.9
20260503232106 21 286 14.5 20.9 0.00 0.00 0.00 30 1004.9
20260503232031 21 298 12.9 19.3 0.00 0.00 0.00 29 1004.9
20260503231914 21 346 9.7 19.3 0.00 0.00 0.00 30 1004.9
20260503231818 21 316 11.3 22.5 0.00 0.00 0.00 30 1004.9
20260503231722 21 24 11.3 22.5 0.00 0.00 0.00 28 1004.9
20260503231606 21 336 11.3 22.5 0.00 0.00 0.00 30 1004.9
20260503231514 21 9 12.9 22.5 0.00 0.00 0.00 29 1004.9
20260503231419 21 347 12.9 22.5 0.00 0.00 0.00 29 1004.9
20260503231323 20 329 14.5 22.5 0.00 0.00 0.00 29 1004.8
20260503231206 20 327 14.5 25.7 0.00 0.00 0.00 28 1004.9
20260503231110 20 347 14.5 25.7 0.00 0.00 0.00 28 1004.9
20260503231015 20 309 16.1 25.7 0.00 0.00 0.00 28 1004.9
20260503230939 20 316 16.1 25.7 0.00 0.00 0.00 29 1004.9
20260503230806 20 324 14.5 25.7 0.00 0.00 0.00 30 1004.9
20260503230710 20 312 14.5 25.7 0.00 0.00 0.00 29 1004.9
20260503230613 20 327 14.5 25.7 0.00 0.00 0.00 32 1004.9
20260503230537 21 288 17.7 25.7 0.00 0.00 0.00 31 1005.0
20260503230420 21 292 19.3 25.7 0.00 0.00 0.00 28 1005.0
20260503230305 21 303 17.7 25.7 0.00 0.00 0.00 29 1004.9
20260503230212 21 300 16.1 24.1 0.00 0.00 0.00 32 1005.0
20260503230117 21 284 16.1 22.5 0.00 0.00 0.00 31 1005.0
20260503230041 21 308 19.3 22.5 0.00 0.00 0.00 29 1005.0
20260503225905 21 289 16.1 22.5 0.00 0.00 0.00 29 1005.0
20260503225809 21 310 14.5 20.9 0.00 0.00 0.00 29 1005.0
20260503225714 21 306 11.3 22.5 0.00 0.00 0.00 29 1005.0
20260503225622 21 306 11.3 22.5 0.00 0.00 0.00 30 1005.0
20260503225527 21 331 9.7 22.5 0.00 0.00 0.00 29 1005.0
20260503225410 21 294 9.7 24.1 0.00 0.00 0.00 29 1005.0
20260503225314 21 327 11.3 24.1 0.00 0.00 0.00 27 1005.2
20260503225219 21 314 9.7 24.1 0.00 0.00 0.00 28 1005.1
20260503225123 21 301 8.0 24.1 0.00 0.00 0.00 30 1005.1
20260503225012 21 350 11.3 24.1 0.00 0.00 0.00 27 1005.2
20260503224917 21 350 14.5 24.1 0.00 0.00 0.00 28 1005.3
20260503224822 21 323 12.9 25.7 0.00 0.00 0.00 29 1005.2
20260503224706 21 332 14.5 25.7 0.00 0.00 0.00 29 1005.2
20260503224630 21 316 14.5 25.7 0.00 0.00 0.00 29 1005.2
20260503224507 21 360 12.9 25.7 0.00 0.00 0.00 28 1005.1
20260503224431 21 330 14.5 25.7 0.00 0.00 0.00 28 1005.1
20260503224319 21 337 14.5 25.7 0.00 0.00 0.00 28 1005.2
20260503224222 21 348 14.5 25.7 0.00 0.00 0.00 29 1005.2
20260503224127 21 5 17.7 25.7 0.00 0.00 0.00 29 1005.1
20260503224011 21 326 16.1 25.7 0.00 0.00 0.00 32 1005.2
20260503223933 21 288 8.0 20.9 0.00 0.00 0.00 32 1005.1
20260503223836 21 254 8.0 24.1 0.00 0.00 0.00 31 1005.1
20260503223739 21 355 8.0 24.1 0.00 0.00 0.00 29 1005.2
20260503223606 21 269 9.7 24.1 0.00 0.00 0.00 29 1005.1
20260503223531 21 336 9.7 24.1 0.00 0.00 0.00 28 1005.1
20260503223414 21 321 11.3 24.1 0.00 0.00 0.00 30 1005.2
20260503223318 21 34 12.9 24.1 0.00 0.00 0.00 27 1005.2
20260503223223 21 306 14.5 24.1 0.00 0.00 0.00 27 1005.3
20260503223128 21 341 16.1 24.1 0.00 0.00 0.00 28 1005.3
20260503223005 21 15 17.7 24.1 0.00 0.00 0.00 28 1005.3
20260503222933 21 355 16.1 24.1 0.00 0.00 0.00 28 1005.3
20260503222817 21 346 12.9 24.1 0.00 0.00 0.00 29 1005.3
20260503222721 21 339 12.9 25.7 0.00 0.00 0.00 29 1005.2
20260503222626 21 17 12.9 25.7 0.00 0.00 0.00 28 1005.3
20260503222509 21 27 9.7 25.7 0.00 0.00 0.00 28 1005.2
20260503222414 21 27 9.7 25.7 0.00 0.00 0.00 29 1005.3
20260503222320 21 32 12.9 25.7 0.00 0.00 0.00 28 1005.3
20260503222209 21 315 16.1 25.7 0.00 0.00 0.00 29 1005.3
20260503222113 21 330 17.7 25.7 0.00 0.00 0.00 30 1005.4
20260503222019 21 12 17.7 25.7 0.00 0.00 0.00 29 1005.3
20260503221923 21 346 16.1 25.7 0.00 0.00 0.00 29 1005.3
20260503221827 21 314 12.9 20.9 0.00 0.00 0.00 29 1005.3
20260503221710 21 301 9.7 19.3 0.00 0.00 0.00 28 1005.2
20260503221618 21 348 6.4 19.3 0.00 0.00 0.00 30 1005.3
20260503221541 21 333 6.4 19.3 0.00 0.00 0.00 30 1005.4
20260503221422 21 328 6.4 19.3 0.00 0.00 0.00 31 1005.3
20260503221306 21 348 8.0 19.3 0.00 0.00 0.00 29 1005.3
20260503221209 21 355 11.3 19.3 0.00 0.00 0.00 29 1005.3
20260503221112 21 310 12.9 19.3 0.00 0.00 0.00 30 1005.4
20260503221015 21 331 11.3 20.9 0.00 0.00 0.00 33 1005.4
20260503220922 21 360 11.3 20.9 0.00 0.00 0.00 30 1005.3
20260503220826 21 318 11.3 22.5 0.00 0.00 0.00 29 1005.4
20260503220708 21 360 11.3 22.5 0.00 0.00 0.00 30 1005.4
20260503220612 21 15 8.0 22.5 0.00 0.00 0.00 31 1005.4
20260503220515 21 5 9.7 22.5 0.00 0.00 0.00 30 1005.4
20260503220438 21 19 12.9 22.5 0.00 0.00 0.00 28 1005.4
20260503220319 21 321 12.9 22.5 0.00 0.00 0.00 29 1005.4
20260503220206 21 18 12.9 22.5 0.00 0.00 0.00 31 1005.4
20260503220131 21 44 12.9 22.5 0.00 0.00 0.00 29 1005.5
20260503220007 21 317 14.5 22.5 0.00 0.00 0.00 29 1005.4
20260503215910 21 329 16.1 25.7 0.00 0.00 0.00 29 1005.5
20260503215812 21 333 14.5 25.7 0.00 0.00 0.00 29 1005.5
20260503215716 21 309 14.5 25.7 0.00 0.00 0.00 28 1005.4
20260503215639 21 336 12.9 25.7 0.00 0.00 0.00 28 1005.5
20260503215506 21 335 11.3 25.7 0.00 0.00 0.00 30 1005.5
20260503215408 21 309 14.5 25.7 0.00 0.00 0.00 27 1005.6
20260503215312 21 340 14.5 25.7 0.00 0.00 0.00 28 1005.5
20260503215215 21 5 19.3 25.7 0.00 0.00 0.00 27 1005.6
20260503215117 21 355 16.1 29.0 0.00 0.00 0.00 28 1005.5
20260503215020 21 344 12.9 29.0 0.00 0.00 0.00 30 1005.6
20260503214943 21 355 11.3 29.0 0.00 0.00 0.00 32 1005.6
20260503214848 21 314 12.9 29.0 0.00 0.00 0.00 29 1005.6
20260503214751 21 360 12.9 29.0 0.00 0.00 0.00 28 1005.5
20260503214607 21 360 17.7 29.0 0.00 0.00 0.00 29 1005.6
20260503214511 21 310 16.1 29.0 0.00 0.00 0.00 30 1005.6
20260503214413 21 292 16.1 29.0 0.00 0.00 0.00 29 1005.6
20260503214316 21 355 16.1 29.0 0.00 0.00 0.00 28 1005.6
20260503214219 21 338 12.9 24.1 0.00 0.00 0.00 30 1005.6
20260503214106 21 339 9.7 24.1 0.00 0.00 0.00 30 1005.5
20260503214009 21 31 14.5 24.1 0.00 0.00 0.00 29 1005.6
20260503213914 21 12 17.7 24.1 0.00 0.00 0.00 28 1005.6
20260503213817 21 345 17.7 24.1 0.00 0.00 0.00 28 1005.7
20260503213720 21 344 17.7 24.1 0.00 0.00 0.00 31 1005.7
20260503213607 21 340 16.1 22.5 0.00 0.00 0.00 28 1005.7
20260503213509 21 355 14.5 25.7 0.00 0.00 0.00 29 1005.7
20260503213411 21 17 14.5 25.7 0.00 0.00 0.00 29 1005.7
20260503213315 21 360 12.9 25.7 0.00 0.00 0.00 29 1005.7
20260503213218 21 5 11.3 25.7 0.00 0.00 0.00 30 1005.7
20260503213122 21 37 11.3 25.7 0.00 0.00 0.00 28 1005.7
20260503213009 21 18 11.3 25.7 0.00 0.00 0.00 30 1005.8
20260503212933 21 42 9.7 25.7 0.00 0.00 0.00 31 1005.8
20260503212815 21 10 11.3 25.7 0.00 0.00 0.00 29 1005.8
20260503212719 21 315 14.5 25.7 0.00 0.00 0.00 30 1005.7
20260503212623 21 324 14.5 29.0 0.00 0.00 0.00 29 1005.8
20260503212506 21 329 12.9 29.0 0.00 0.00 0.00 30 1005.9
20260503212410 21 5 12.9 29.0 0.00 0.00 0.00 30 1005.8
20260503212338 21 346 16.1 29.0 0.00 0.00 0.00 30 1005.7
20260503212220 21 299 16.1 29.0 0.00 0.00 0.00 31 1005.7
20260503212143 21 304 12.9 29.0 0.00 0.00 0.00 29 1005.8
20260503212006 21 327 14.5 29.0 0.00 0.00 0.00 29 1005.9
20260503211909 21 18 19.3 29.0 0.00 0.00 0.00 30 1005.9
20260503211812 21 5 17.7 29.0 0.00 0.00 0.00 30 1006.0
20260503211716 21 360 16.1 24.1 0.00 0.00 0.00 28 1006.0
20260503211623 21 345 12.9 24.1 0.00 0.00 0.00 29 1005.9
20260503211506 21 11 8.0 24.1 0.00 0.00 0.00 30 1005.9
20260503211410 21 324 9.7 24.1 0.00 0.00 0.00 28 1005.9
20260503211314 20 345 12.9 24.1 0.00 0.00 0.00 28 1005.9
20260503211217 20 343 12.9 24.1 0.00 0.00 0.00 31 1005.9
20260503211142 20 343 14.5 24.1 0.00 0.00 0.00 28 1005.9
20260503211009 20 360 14.5 25.7 0.00 0.00 0.00 30 1005.9
20260503210914 20 323 12.9 25.7 0.00 0.00 0.00 29 1005.9
20260503210838 20 360 14.5 33.8 0.00 0.00 0.00 28 1005.9
20260503210722 20 311 14.5 33.8 0.00 0.00 0.00 29 1005.9
20260503210626 20 290 14.5 33.8 0.00 0.00 0.00 30 1005.9
20260503210509 20 331 16.1 33.8 0.00 0.00 0.00 31 1005.9
20260503210412 20 320 14.5 33.8 0.00 0.00 0.00 29 1005.9
20260503210321 20 31 14.5 33.8 0.00 0.00 0.00 30 1005.9
20260503210206 20 55 19.3 33.8 0.00 0.00 0.00 28 1006.0
20260503210111 20 25 17.7 33.8 0.00 0.00 0.00 28 1006.0
20260503210016 20 348 14.5 33.8 0.00 0.00 0.00 29 1006.0
20260503205920 20 20 14.5 27.4 0.00 0.00 0.00 28 1005.9
20260503205824 20 300 16.1 27.4 0.00 0.00 0.00 29 1006.0
20260503205752 20 326 17.7 27.4 0.00 0.00 0.00 31 1006.0
20260503205607 20 306 19.3 27.4 0.00 0.00 0.00 31 1006.0
20260503205512 20 360 17.7 27.4 0.00 0.00 0.00 30 1005.9
20260503205415 20 321 17.7 27.4 0.00 0.00 0.00 28 1005.9
20260503205320 21 294 17.7 27.4 0.00 0.00 0.00 29 1005.9
20260503205223 21 301 17.7 27.4 0.00 0.00 0.00 30 1006.1
20260503205111 20 314 14.5 29.0 0.00 0.00 0.00 32 1006.0
20260503205016 20 5 12.9 29.0 0.00 0.00 0.00 32 1006.1
20260503204920 20 308 14.5 29.0 0.00 0.00 0.00 34 1006.0
20260503204805 20 333 19.3 29.0 0.00 0.00 0.00 28 1006.1
20260503204709 20 5 19.3 29.0 0.00 0.00 0.00 28 1006.2
20260503204614 20 355 19.3 29.0 0.00 0.00 0.00 30 1006.2
20260503204521 20 342 19.3 29.0 0.00 0.00 0.00 28 1006.0
20260503204406 20 303 19.3 29.0 0.00 0.00 0.00 29 1006.0
20260503204310 20 322 19.3 29.0 0.00 0.00 0.00 28 1006.0
20260503204214 20 305 14.5 37.0 0.00 0.00 0.00 30 1006.1
20260503204118 20 330 12.9 37.0 0.00 0.00 0.00 28 1006.1
20260503204021 20 349 12.9 38.6 0.00 0.00 0.00 29 1006.1
20260503203928 20 343 12.9 38.6 0.00 0.00 0.00 29 1006.1
20260503203805 20 348 16.1 38.6 0.00 0.00 0.00 28 1006.1
20260503203709 20 334 19.3 38.6 0.00 0.00 0.00 29 1006.1
20260503203614 20 331 20.9 38.6 0.00 0.00 0.00 31 1006.1
20260503203519 20 340 20.9 38.6 0.00 0.00 0.00 29 1006.1
20260503203424 20 355 20.9 38.6 0.00 0.00 0.00 30 1006.0
20260503203311 20 298 22.5 38.6 0.00 0.00 0.00 30 1006.0
20260503203236 20 308 17.7 38.6 0.00 0.00 0.00 28 1006.0
20260503203120 20 298 14.5 29.0 0.00 0.00 0.00 29 1006.0
20260503203005 20 355 14.5 29.0 0.00 0.00 0.00 27 1006.1
20260503202929 20 350 17.7 29.0 0.00 0.00 0.00 27 1006.2
20260503202812 20 5 19.3 29.0 0.00 0.00 0.00 29 1006.2
20260503202737 20 355 20.9 29.0 0.00 0.00 0.00 28 1006.3
20260503202624 20 348 20.9 29.0 0.00 0.00 0.00 31 1006.0
20260503202508 20 338 19.3 27.4 0.00 0.00 0.00 28 1006.2
20260503202411 20 355 17.7 25.7 0.00 0.00 0.00 30 1006.1
20260503202315 20 9 16.1 25.7 0.00 0.00 0.00 28 1006.1
20260503202239 20 23 12.9 25.7 0.00 0.00 0.00 29 1006.1
20260503202122 20 14 11.3 24.1 0.00 0.00 0.00 29 1006.2
20260503202010 20 5 14.5 24.1 0.00 0.00 0.00 28 1006.1
20260503201915 20 346 16.1 24.1 0.00 0.00 0.00 29 1006.2
20260503201818 20 9 14.5 24.1 0.00 0.00 0.00 28 1006.2
20260503201722 21 26 14.5 22.5 0.00 0.00 0.00 30 1006.2
20260503201606 20 12 16.1 22.5 0.00 0.00 0.00 29 1006.2
20260503201530 20 33 14.5 22.5 0.00 0.00 0.00 32 1006.3
20260503201414 20 360 14.5 20.9 0.00 0.00 0.00 31 1006.3
20260503201322 20 328 14.5 20.9 0.00 0.00 0.00 29 1006.2
20260503201226 20 360 12.9 22.5 0.00 0.00 0.00 30 1006.2
20260503201109 20 11 12.9 22.5 0.00 0.00 0.00 28 1006.2
20260503201014 20 23 12.9 27.4 0.00 0.00 0.00 28 1006.2
20260503200919 20 43 12.9 27.4 0.00 0.00 0.00 29 1006.3
20260503200823 20 5 9.7 27.4 0.00 0.00 0.00 28 1006.2
20260503200731 20 14 8.0 27.4 0.00 0.00 0.00 30 1006.2
20260503200614 20 313 9.7 27.4 0.00 0.00 0.00 32 1006.2
20260503200519 20 360 12.9 27.4 0.00 0.00 0.00 30 1006.2
20260503200422 20 50 14.5 27.4 0.00 0.00 0.00 30 1006.3
20260503200327 21 53 12.9 27.4 0.00 0.00 0.00 30 1006.3
20260503200229 20 346 9.7 27.4 0.00 0.00 0.00 34 1006.3
20260503200133 20 285 8.0 22.5 0.00 0.00 0.00 32 1006.2
20260503200015 20 329 11.3 22.5 0.00 0.00 0.00 31 1006.3
20260503195923 20 339 9.7 22.5 0.00 0.00 0.00 30 1006.3
20260503195807 20 339 9.7 33.8 0.00 0.00 0.00 31 1006.3
20260503195732 20 304 11.3 33.8 0.00 0.00 0.00 30 1006.3
20260503195615 20 333 12.9 33.8 0.00 0.00 0.00 30 1006.3
20260503195520 20 329 14.5 33.8 0.00 0.00 0.00 30 1006.3
20260503195405 20 344 14.5 33.8 0.00 0.00 0.00 29 1006.4
20260503195329 20 355 14.5 33.8 0.00 0.00 0.00 31 1006.4
20260503195216 20 347 14.5 33.8 0.00 0.00 0.00 31 1006.3
20260503195140 20 360 17.7 33.8 0.00 0.00 0.00 33 1006.4
20260503195004 20 321 16.1 33.8 0.00 0.00 0.00 33 1006.3
20260503194909 20 329 12.9 27.4 0.00 0.00 0.00 33 1006.3
20260503194833 20 299 11.3 27.4 0.00 0.00 0.00 37 1006.3
20260503194716 20 308 12.9 29.0 0.00 0.00 0.00 35 1006.4
20260503194619 20 330 14.5 29.0 0.00 0.00 0.00 33 1006.3
20260503194507 20 337 16.1 29.0 0.00 0.00 0.00 36 1006.3
20260503194412 21 303 12.9 29.0 0.00 0.00 0.00 37 1006.3
20260503194316 21 331 12.9 29.0 0.00 0.00 0.00 35 1006.4
20260503194241 21 300 17.7 29.0 0.00 0.00 0.00 31 1006.3
20260503194104 21 351 16.1 29.0 0.00 0.00 0.00 32 1006.4
20260503194008 20 348 14.5 29.0 0.00 0.00 0.00 36 1006.3
20260503193917 20 355 14.5 29.0 0.00 0.00 0.00 37 1006.4
20260503193821 20 9 9.7 29.0 0.00 0.00 0.00 35 1006.3
20260503193706 20 5 9.7 19.3 0.00 0.00 0.00 34 1006.3
20260503193630 20 331 12.9 19.3 0.00 0.00 0.00 32 1006.3
20260503193507 20 12 14.5 19.3 0.00 0.00 0.00 31 1006.4
20260503193411 20 328 12.9 19.3 0.00 0.00 0.00 32 1006.4
20260503193319 20 5 12.9 22.5 0.00 0.00 0.00 33 1006.3
20260503193223 20 25 12.9 22.5 0.00 0.00 0.00 32 1006.4
20260503193107 21 32 11.3 22.5 0.00 0.00 0.00 32 1006.4
20260503193030 21 360 9.7 22.5 0.00 0.00 0.00 31 1006.4
20260503192912 20 28 9.7 25.7 0.00 0.00 0.00 32 1006.5
20260503192817 20 30 14.5 25.7 0.00 0.00 0.00 31 1006.5
20260503192705 20 5 14.5 27.4 0.00 0.00 0.00 32 1006.6
20260503192631 20 350 16.1 27.4 0.00 0.00 0.00 32 1006.5
20260503192506 20 339 12.9 32.2 0.00 0.00 0.00 31 1006.5
20260503192411 20 328 11.3 32.2 0.00 0.00 0.00 33 1006.6
20260503192314 20 312 11.3 32.2 0.00 0.00 0.00 31 1006.6
20260503192238 20 335 14.5 32.2 0.00 0.00 0.00 32 1006.6
20260503192121 20 312 19.3 32.2 0.00 0.00 0.00 30 1006.7
20260503192009 20 334 20.9 32.2 0.00 0.00 0.00 29 1006.7
20260503191913 20 26 19.3 32.2 0.00 0.00 0.00 31 1006.8
20260503191817 20 349 19.3 32.2 0.00 0.00 0.00 30 1006.7
20260503191722 20 5 19.3 32.2 0.00 0.00 0.00 32 1006.8
20260503191607 20 5 17.7 29.0 0.00 0.00 0.00 32 1006.8
20260503191532 20 360 17.7 30.6 0.00 0.00 0.00 29 1006.8
20260503191419 20 360 17.7 30.6 0.00 0.00 0.00 29 1006.8
20260503191323 20 331 17.7 30.6 0.00 0.00 0.00 30 1006.7
20260503191228 20 25 19.3 30.6 0.00 0.00 0.00 29 1006.8
20260503191131 20 329 20.9 30.6 0.00 0.00 0.00 29 1006.7
20260503191035 20 350 20.9 30.6 0.00 0.00 0.00 30 1006.7
20260503190919 20 360 17.7 30.6 0.00 0.00 0.00 30 1006.7
20260503190843 20 341 20.9 30.6 0.00 0.00 0.00 28 1006.9
20260503190725 20 338 17.7 29.0 0.00 0.00 0.00 31 1006.7
20260503190612 20 360 14.5 27.4 0.00 0.00 0.00 32 1006.9
20260503190516 20 10 14.5 27.4 0.00 0.00 0.00 30 1006.8
20260503190421 20 5 16.1 27.4 0.00 0.00 0.00 32 1006.6
20260503190325 20 20 17.7 27.4 0.00 0.00 0.00 33 1006.8
20260503190249 20 355 19.3 32.2 0.00 0.00 0.00 31 1007.0
20260503190105 20 26 16.1 32.2 0.00 0.00 0.00 31 1006.8
20260503190009 20 309 17.7 32.2 0.00 0.00 0.00 31 1006.7
20260503185918 20 9 19.3 32.2 0.00 0.00 0.00 30 1006.7
20260503185819 20 345 17.7 32.2 0.00 0.00 0.00 31 1006.8
20260503185704 20 347 16.1 32.2 0.00 0.00 0.00 31 1006.9
20260503185609 20 15 17.7 32.2 0.00 0.00 0.00 33 1006.8
20260503185514 20 355 19.3 32.2 0.00 0.00 0.00 33 1006.9
20260503185417 20 343 16.1 32.2 0.00 0.00 0.00 33 1006.8
20260503185344 20 331 16.1 25.7 0.00 0.00 0.00 33 1006.8
20260503185228 20 344 16.1 25.7 0.00 0.00 0.00 31 1006.9
20260503185130 20 348 12.9 25.7 0.00 0.00 0.00 34 1006.7
20260503185014 20 355 8.0 25.7 0.00 0.00 0.00 34 1006.7
20260503184919 20 17 9.7 27.4 0.00 0.00 0.00 35 1006.7
20260503184805 20 300 16.1 27.4 0.00 0.00 0.00 31 1006.8
20260503184709 20 346 17.7 27.4 0.00 0.00 0.00 30 1006.7
20260503184618 20 331 17.7 27.4 0.00 0.00 0.00 32 1006.8
20260503184504 20 355 19.3 27.4 0.00 0.00 0.00 33 1006.7
20260503184430 20 329 19.3 27.4 0.00 0.00 0.00 34 1006.8
20260503184313 20 344 16.1 27.4 0.00 0.00 0.00 33 1006.8
20260503184216 20 348 16.1 30.6 0.00 0.00 0.00 34 1006.8
20260503184138 20 314 16.1 30.6 0.00 0.00 0.00 32 1006.8
20260503184006 20 340 14.5 30.6 0.00 0.00 0.00 33 1006.7
20260503183912 20 10 16.1 30.6 0.00 0.00 0.00 33 1006.8
20260503183816 20 5 14.5 30.6 0.00 0.00 0.00 33 1006.8
20260503183741 20 5 9.7 30.6 0.00 0.00 0.00 35 1006.8
20260503183605 20 20 14.5 30.6 0.00 0.00 0.00 33 1006.9
20260503183510 20 44 19.3 30.6 0.00 0.00 0.00 34 1007.0
20260503183324 20 360 9.7 29.0 0.00 0.00 0.00 32 1006.9
20260503183207 20 44 16.1 29.0 0.00 0.00 0.00 33 1007.0
20260503183112 20 12 14.5 29.0 0.00 0.00 0.00 31 1006.8
20260503183036 20 22 14.5 29.0 0.00 0.00 0.00 33 1006.8
20260503182919 20 49 16.1 29.0 0.00 0.00 0.00 33 1006.8
20260503182843 20 24 17.7 29.0 0.00 0.00 0.00 33 1006.9
20260503182727 20 18 16.1 29.0 0.00 0.00 0.00 36 1007.0
20260503182613 20 22 14.5 29.0 0.00 0.00 0.00 34 1006.9
20260503182517 20 42 16.1 29.0 0.00 0.00 0.00 35 1007.0
20260503182422 20 14 14.5 29.0 0.00 0.00 0.00 34 1006.9
20260503182326 20 5 12.9 29.0 0.00 0.00 0.00 35 1006.9
20260503182208 20 346 12.9 29.0 0.00 0.00 0.00 36 1006.9
20260503182114 20 61 16.1 29.0 0.00 0.00 0.00 36 1007.0
20260503182038 20 13 17.7 29.0 0.00 0.00 0.00 33 1007.1
20260503181905 20 32 19.3 33.8 0.00 0.00 0.00 35 1007.1
20260503181809 20 34 19.3 33.8 0.00 0.00 0.00 36 1007.6
20260503181713 20 344 19.3 33.8 0.00 0.00 0.00 36 1007.0
20260503181617 20 47 16.1 33.8 0.00 0.00 0.00 37 1007.1
20260503181520 20 26 14.5 33.8 0.00 0.00 0.00 38 1007.3
20260503181410 20 15 16.1 33.8 0.00 0.00 0.00 37 1007.2
20260503181313 20 344 19.3 33.8 0.00 0.00 0.00 35 1007.1
20260503181217 20 360 22.5 33.8 0.00 0.00 0.00 35 1007.2
20260503181122 20 5 22.5 33.8 0.00 0.00 0.00 34 1007.2
20260503181006 20 360 22.5 33.8 0.00 0.00 0.00 35 1007.2
20260503180910 20 355 24.1 33.8 0.00 0.00 0.00 35 1007.1
20260503180834 20 360 20.9 33.8 0.00 0.00 0.00 36 1007.0
20260503180741 20 340 16.1 33.8 0.00 0.00 0.00 37 1007.4
20260503180604 20 338 12.9 25.7 0.00 0.00 0.00 39 1007.0
20260503180528 20 331 14.5 25.7 0.00 0.00 0.00 39 1007.0
20260503180411 20 25 17.7 25.7 0.00 0.00 0.00 41 1007.2
20260503180316 20 347 19.3 25.7 0.00 0.00 0.00 40 1007.1
20260503180221 20 349 16.1 24.1 0.00 0.00 0.00 43 1007.0
20260503180145 20 39 17.7 24.1 0.00 0.00 0.00 41 1007.0
20260503180031 20 350 19.3 24.1 0.00 0.00 0.00 41 1007.4
20260503175906 20 21 16.1 24.1 0.00 0.00 0.00 44 1007.0
20260503175811 20 5 14.5 20.9 0.00 0.00 0.00 44 1007.0
20260503175715 20 360 9.7 20.9 0.00 0.00 0.00 45 1007.1
20260503175640 20 331 9.7 20.9 0.00 0.00 0.00 44 1007.0
20260503175504 20 338 9.7 20.9 0.00 0.00 0.00 44 1006.9
20260503175412 20 249 9.7 20.9 0.00 0.00 0.00 43 1006.9
20260503175337 20 360 9.7 25.7 0.00 0.00 0.00 46 1007.0
20260503175220 20 330 12.9 25.7 0.00 0.00 0.00 44 1007.1
20260503175104 19 333 12.9 25.7 0.00 0.00 0.00 45 1007.1
20260503175028 19 42 11.3 25.7 0.00 0.00 0.00 44 1007.0
20260503174911 19 39 11.3 25.7 0.00 0.00 0.00 44 1007.3
20260503174817 19 76 9.7 25.7 0.00 0.00 0.00 44 1007.1
20260503174705 19 30 14.5 25.7 0.00 0.00 0.00 43 1007.2
20260503174629 19 355 17.7 25.7 0.00 0.00 0.00 43 1007.2
20260503174507 19 334 11.3 24.1 0.00 0.00 0.00 44 1007.0
20260503174410 19 77 8.0 20.9 0.00 0.00 0.00 42 1007.1
20260503174316 20 44 8.0 20.9 0.00 0.00 0.00 43 1007.1
20260503174240 20 32 9.7 20.9 0.00 0.00 0.00 43 1007.0
20260503174142 20 26 12.9 20.9 0.00 0.00 0.00 48 1007.2
20260503174010 20 360 12.9 24.1 0.00 0.00 0.00 46 1007.2
20260503173914 19 32 9.7 24.1 0.00 0.00 0.00 46 1007.1
20260503173818 19 355 8.0 24.1 0.00 0.00 0.00 44 1007.1
20260503173722 19 9 9.7 25.7 0.00 0.00 0.00 45 1007.1
20260503173626 19 320 12.9 25.7 0.00 0.00 0.00 44 1007.1
20260503173551 19 342 11.3 25.7 0.00 0.00 0.00 47 1007.2
20260503173407 19 345 11.3 25.7 0.00 0.00 0.00 45 1007.1
20260503173315 19 51 14.5 25.7 0.00 0.00 0.00 43 1007.2
20260503173220 19 42 12.9 25.7 0.00 0.00 0.00 42 1007.3
20260503173123 19 5 11.3 25.7 0.00 0.00 0.00 45 1007.3
20260503173005 19 5 17.7 25.7 0.00 0.00 0.00 42 1007.3
20260503172909 19 18 19.3 25.7 0.00 0.00 0.00 42 1007.3
20260503172815 19 26 16.1 25.7 0.00 0.00 0.00 46 1007.6
20260503172723 19 42 11.3 22.5 0.00 0.00 0.00 46 1007.3
20260503172628 19 32 9.7 24.1 0.00 0.00 0.00 48 1007.3
20260503172512 19 38 11.3 27.4 0.00 0.00 0.00 46 1007.4
20260503172417 19 17 12.9 27.4 0.00 0.00 0.00 45 1007.5
20260503172322 19 48 14.5 27.4 0.00 0.00 0.00 45 1007.5
20260503172207 19 28 14.5 27.4 0.00 0.00 0.00 44 1007.5
20260503172116 19 29 12.9 27.4 0.00 0.00 0.00 45 1007.4
20260503172022 18 44 14.5 27.4 0.00 0.00 0.00 42 1007.5
20260503171907 18 30 17.7 27.4 0.00 0.00 0.00 43 1007.6
20260503171812 18 32 19.3 27.4 0.00 0.00 0.00 45 1007.5
20260503171718 18 345 19.3 27.4 0.00 0.00 0.00 45 1007.7
20260503171622 18 76 16.1 24.1 0.00 0.00 0.00 44 1007.5
20260503171512 18 51 17.7 24.1 0.00 0.00 0.00 46 1007.4
20260503171418 18 26 16.1 24.1 0.00 0.00 0.00 45 1007.6
20260503171304 18 39 12.9 24.1 0.00 0.00 0.00 45 1007.5
20260503171210 18 55 12.9 24.1 0.00 0.00 0.00 44 1007.5
20260503171113 18 51 14.5 24.1 0.00 0.00 0.00 45 1007.5
20260503171004 18 38 17.7 24.1 0.00 0.00 0.00 45 1007.5
20260503170908 18 40 17.7 24.1 0.00 0.00 0.00 43 1007.7
20260503170814 18 41 17.7 24.1 0.00 0.00 0.00 43 1007.4
20260503170719 18 40 16.1 24.1 0.00 0.00 0.00 44 1007.5
20260503170603 18 32 12.9 27.4 0.00 0.00 0.00 45 1007.5
20260503170507 18 26 11.3 27.4 0.00 0.00 0.00 46 1007.5
20260503170431 18 340 16.1 27.4 0.00 0.00 0.00 44 1007.5
20260503170339 18 44 17.7 27.4 0.00 0.00 0.00 44 1007.6
20260503170220 18 24 16.1 27.4 0.00 0.00 0.00 43 1007.5
20260503170124 18 64 17.7 27.4 0.00 0.00 0.00 44 1007.7
20260503160118 18 355 14.5 27.4 0.00 0.00 0.00 50 1007.3
20260503150948 17 46 16.1 27.4 0.00 0.00 0.00 53 1007.2
20260503150804 16 59 16.1 33.8 0.00 0.00 0.00 53 1007.4
20260503150706 16 38 17.7 33.8 0.00 0.00 0.00 52 1007.1
20260503150631 16 69 17.7 33.8 0.00 0.00 0.00 51 1007.3
20260503150513 16 78 17.7 33.8 0.00 0.00 0.00 50 1007.3
20260503150417 16 47 17.7 33.8 0.00 0.00 0.00 50 1007.3
20260503150318 16 68 17.7 33.8 0.00 0.00 0.00 51 1007.3
20260503150206 16 40 20.9 33.8 0.00 0.00 0.00 50 1007.2
20260503150109 16 41 22.5 33.8 0.00 0.00 0.00 50 1007.4
20260503140250 15 35 24.1 32.2 0.00 0.00 0.00 56 1007.0
20260503140105 15 86 20.9 27.4 0.00 0.00 0.00 56 1007.0
20260503131408 13 41 6.4 19.3 0.00 0.00 0.00 57 1006.4
20260503131312 13 360 6.4 19.3 0.00 0.00 0.00 57 1006.4
20260503131236 13 26 6.4 19.3 0.00 0.00 0.00 56 1006.4
20260503131122 13 43 11.3 19.3 0.00 0.00 0.00 57 1006.5
20260503131046 13 27 12.9 19.3 0.00 0.00 0.00 56 1006.5
20260503130950 13 36 11.3 19.3 0.00 0.00 0.00 57 1006.4
20260503130806 13 360 8.0 14.5 0.00 0.00 0.00 57 1006.4
20260503130709 13 13 6.4 14.5 0.00 0.00 0.00 56 1006.5
20260503130614 13 47 6.4 14.5 0.00 0.00 0.00 56 1006.4
20260503130518 13 355 8.0 14.5 0.00 0.00 0.00 56 1006.3
20260503130406 13 355 8.0 14.5 0.00 0.00 0.00 56 1006.3
20260503130310 13 21 8.0 14.5 0.00 0.00 0.00 56 1006.3
20260503130215 13 5 8.0 14.5 0.00 0.00 0.00 56 1006.4
20260503130140 13 9 9.7 14.5 0.00 0.00 0.00 56 1006.4
20260503120111 10 242 0.0 0.0 0.00 0.00 0.00 66 1005.7
20260503110828 11 242 1.6 4.8 0.00 0.00 0.00 55 1005.0
20260503110715 11 242 1.6 4.8 0.00 0.00 0.00 55 1005.0
20260503110621 11 242 3.2 4.8 0.00 0.00 0.00 55 1005.0
20260503110504 11 242 1.6 4.8 0.00 0.00 0.00 55 1005.0
20260503110429 11 242 1.6 4.8 0.00 0.00 0.00 55 1005.0
20260503110305 11 242 1.6 4.8 0.00 0.00 0.00 55 1005.0
20260503110208 12 242 1.6 4.8 0.00 0.00 0.00 55 1005.0
20260503110116 12 242 3.2 6.4 0.00 0.00 0.00 55 1005.0
20260503100231 13 258 11.3 19.3 0.00 0.00 0.00 50 1005.2
20260503100118 13 279 11.3 19.3 0.00 0.00 0.00 50 1005.1
20260503090507 14 232 4.8 17.7 0.00 0.00 0.00 51 1005.4
20260503090415 14 257 4.8 17.7 0.00 0.00 0.00 51 1005.4
20260503090319 14 244 4.8 17.7 0.00 0.00 0.00 51 1005.4
20260503090205 14 253 8.0 17.7 0.00 0.00 0.00 51 1005.5
20260503090128 14 271 9.7 17.7 0.00 0.00 0.00 51 1005.4
20260503081608 14 222 9.7 22.5 0.00 0.00 0.00 55 1005.6
20260503081531 14 231 12.9 22.5 0.00 0.00 0.00 55 1005.7
20260503081414 14 231 12.9 22.5 0.00 0.00 0.00 55 1005.6
20260503081316 14 264 9.7 22.5 0.00 0.00 0.00 55 1005.6
20260503081219 14 225 6.4 22.5 0.00 0.00 0.00 55 1005.7
20260503081107 14 246 8.0 22.5 0.00 0.00 0.00 55 1005.7
20260503081009 14 252 8.0 22.5 0.00 0.00 0.00 55 1005.7
20260503080912 14 270 9.7 22.5 0.00 0.00 0.00 55 1005.7
20260503080815 14 245 9.7 22.5 0.00 0.00 0.00 55 1005.6
20260503080718 14 232 6.4 12.9 0.00 0.00 0.00 55 1005.7
20260503080641 14 221 4.8 14.5 0.00 0.00 0.00 55 1005.8
20260503080504 14 217 6.4 14.5 0.00 0.00 0.00 55 1005.8
20260503080411 14 240 8.0 14.5 0.00 0.00 0.00 55 1005.8
20260503080314 14 251 6.4 14.5 0.00 0.00 0.00 55 1005.7
20260503080218 14 238 6.4 14.5 0.00 0.00 0.00 55 1005.8
20260503080121 14 251 6.4 14.5 0.00 0.00 0.00 55 1005.8
20260503072926 14 221 8.0 14.5 0.00 0.00 0.00 55 1006.0
20260503072829 14 231 9.7 14.5 0.00 0.00 0.00 55 1006.1
20260503072704 14 248 8.0 14.5 0.00 0.00 0.00 56 1006.0
20260503072627 14 257 6.4 12.9 0.00 0.00 0.00 56 1006.1
20260503072550 14 271 6.4 12.9 0.00 0.00 0.00 56 1006.2
20260503072405 14 240 6.4 12.9 0.00 0.00 0.00 56 1006.1
20260503072314 14 212 6.4 12.9 0.00 0.00 0.00 56 1006.2
20260503072239 14 245 8.0 12.9 0.00 0.00 0.00 56 1006.2
20260503072121 14 228 8.0 12.9 0.00 0.00 0.00 56 1006.2
20260503072006 13 235 8.0 12.9 0.00 0.00 0.00 56 1006.2
20260503071930 13 244 6.4 12.9 0.00 0.00 0.00 56 1006.2
20260503071806 13 216 6.4 12.9 0.00 0.00 0.00 56 1006.2
20260503071710 13 209 6.4 12.9 0.00 0.00 0.00 56 1006.2
20260503071619 13 217 6.4 12.9 0.00 0.00 0.00 56 1006.2
20260503071522 13 219 8.0 12.9 0.00 0.00 0.00 56 1006.2
20260503071427 13 239 6.4 14.5 0.00 0.00 0.00 57 1006.3
20260503071309 13 234 6.4 14.5 0.00 0.00 0.00 56 1006.3
20260503071214 13 234 6.4 14.5 0.00 0.00 0.00 56 1006.3
20260503071119 13 224 4.8 14.5 0.00 0.00 0.00 56 1006.3
20260503071041 13 217 4.8 14.5 0.00 0.00 0.00 56 1006.3
20260503070909 13 208 4.8 14.5 0.00 0.00 0.00 56 1006.3
20260503070813 13 212 4.8 14.5 0.00 0.00 0.00 56 1006.4
20260503070736 13 215 4.8 14.5 0.00 0.00 0.00 56 1006.3
20260503070620 13 225 3.2 14.5 0.00 0.00 0.00 56 1006.4
20260503070545 13 227 4.8 14.5 0.00 0.00 0.00 56 1006.4
20260503070448 13 231 4.8 14.5 0.00 0.00 0.00 56 1006.6
20260503070304 13 217 4.8 14.5 0.00 0.00 0.00 56 1006.6
20260503070212 13 194 6.4 14.5 0.00 0.00 0.00 56 1006.6
20260503070117 13 192 8.0 14.5 0.00 0.00 0.00 55 1006.6